Location: Eucalyptus Hills
(32.8798°N, 116.9467°W)
Time: 02:31:19
(UTC+00:00)

Daily predictions for brighter satellites

Satellite Brightness Start Highest point End
(mag) Time Altitude Azimuth Time Altitude Azimuth Time Altitude Azimuth
IRS-1C Rocket 4.3 02:02:32 10° SE 02:07:34 49° ENE 02:12:38 10° N
Feng Yun 1-1 Rocket 4.4 02:01:58 10° SSE 02:07:47 74° ENE 02:13:43 10° N
Meteor 1-14 Rocket 4.5 02:05:00 10° SSE 02:10:18 46° E 02:15:34 10° NNE
Cosmos 2263 Rocket 2.4 02:05:00 10° NNW 02:10:34 80° WSW 02:16:08 10° SSE
USA 234 3.6 02:09:04 10° NE 02:15:20 48° SE 02:21:35 10° SSW
GP-B 4.3 02:12:50 10° SE 02:16:13 22° E 02:19:37 10° NNE
COSMO-SKYMED 1 3.9 02:13:40 10° N 02:17:49 45° WNW 02:21:56 10° SSW
Delta 7925 Rocket 4.2 02:15:20 10° WSW 02:19:57 38° S 02:24:14 10° ESE
Cosmos 1271 Rocket 3.2 02:16:16 10° NNW 02:19:59 65° W 02:23:44 10° S
Cosmos 1633 Rocket 3.8 02:15:53 10° SSW 02:20:13 60° W 02:24:36 10° N
Cosmos 2322 4.3 02:15:27 10° SSE 02:20:33 35° ESE 02:25:41 10° NE
CZ-2C R/B 3.1 02:15:50 10° NNE 02:20:52 39° E 02:25:45 10° SSE
ATLAS CENTAUR R/B 2.2 02:19:58 10° SW 02:23:27 45° WNW 02:26:57 10° NNE
Okean 1-7 4.5 02:21:26 10° NNE 02:24:20 17° ENE 02:27:12 10° ESE
Cosmos 1500 3.1 02:22:01 10° S 02:25:39 57° E 02:29:18 10° NNE
Meteor 1-18 Rocket 4.4 02:21:10 10° N 02:27:00 57° E 02:32:44 10° SSE
Centaur D-1AR AC-48 4.0 02:24:29 10° WSW 02:27:40 15° SSW 02:30:01 10° SSE
CSL-04 Rocket 4.1 02:31:40 10° SE 02:36:48 40° ENE 02:41:55 10° N
NOSS 3-2 (A) 4.3 02:33:12 10° SSE 02:37:13 22° ESE 02:40:45 13° ENE
Cosmos 1869 Rocket 4.5 02:35:01 10° SE 02:38:35 26° E 02:42:12 10° NNE
CSL-04 Debris 4.4 02:34:40 10° SE 02:39:49 46° ENE 02:45:01 10° N
DELTA 2 R/B (1) 3.6 02:35:25 10° SW 02:40:57 74° SSE 02:45:26 16° ENE
Cosmos 2084 Rocket 3.9 02:39:18 10° NNW 02:43:32 44° NE 02:47:02 15° SE
Cosmos 1844 Rocket 3.2 02:39:53 10° N 02:45:01 37° ENE 02:49:37 12° SE
CZ-3A R/B 4.1 02:19:06 10° WSW 02:49:09 47° S 02:52:59 18° ESE
Nadezhda 3 Rocket 4.1 02:43:19 10° N 02:49:44 90° WSW 02:56:05 10° S
Cosmos 2333 4.1 02:45:34 10° SSW 02:51:10 78° ESE 02:56:51 10° NNE
Meteor 1-5 Rocket 4.0 02:47:31 10° S 02:52:48 74° E 02:58:15 10° NNE
Cosmos 2360 Rocket 3.1 02:48:31 10° SW 02:53:58 50° WNW 02:59:27 10° N
SME Rocket 4.2 02:48:57 10° NNE 02:54:45 35° E 02:58:54 10° SSE
Hubble Space Telescope 2.2 02:52:03 10° SW 02:55:24 24° SSE 02:56:44 20° SE
Okean-O 2.9 02:51:18 10° S 02:55:42 72° WSW 03:00:07 10° NNW
CENTAUR R/B 3.5 02:55:39 10° SSE 02:58:35 20° ESE 02:58:35 20° ESE
Cosmos 1844 4.1 02:55:51 10° N 03:01:16 42° ENE 03:04:24 23° ESE
Aureole 2 Rocket 1.8 02:59:32 10° NNW 03:02:00 66° WSW 03:02:59 30° S
ASTEX 1 4.1 02:57:49 10° NNE 03:02:03 29° E 03:03:08 26° ESE
Cosmos 2333 Rocket 2.1 03:03:01 10° SSW 03:08:41 86° ESE 03:14:24 10° NNE
HJ-1C 4.2 03:09:16 10° S 03:12:29 50° W 03:15:43 10° NNW
SJ-6B 4.4 03:14:34 22° NNE 03:14:34 22° NNE 03:16:29 10° NNE
Meteor 2-4 Rocket 3.9 03:11:26 10° N 03:17:21 84° W 03:23:16 10° S
SL-8 Rocket 3.9 03:12:02 10° S 03:18:18 88° E 03:24:31 10° N
Lacrosse 4 Rocket 1.8 03:14:13 10° SSW 03:18:30 68° WNW 03:22:57 10° NNE
Helios 1A Rocket 3.4 03:15:54 10° S 03:19:53 59° WSW 03:23:53 10° NNW
SeaSat 1 3.7 03:15:54 10° N 03:20:31 41° WNW 03:25:06 10° SW
Cosmos 1703 Rocket 3.4 03:16:41 10° N 03:21:05 89° WSW 03:25:24 10° S
Delta 2 Rocket 4.4 03:19:23 10° WSW 03:25:21 43° S 03:27:01 35° SE
Cosmos 1536 4.4 03:29:09 10° S 03:36:51 12° N 03:37:08 10° N
Cosmos 2366 rocket 4.0 03:27:51 10° S 03:34:09 86° W 03:40:32 10° N
SL-08 RB Rocket 4.5 03:30:30 10° S 03:34:52 50° W 03:39:17 10° NNW
MetOp-A 4.0 03:32:41 32° SSE 03:35:11 76° ENE 03:40:33 10° N
H-2A R/B 4.3 03:31:32 10° SSW 03:36:03 27° W 03:40:36 10° NW
SL-08 R/B 4.5 03:32:07 10° S 03:38:23 60° E 03:44:44 10° NNE
Cosmos 1339 Rocket 4.5 03:32:36 10° N 03:38:51 86° W 03:45:12 10° S
COSMOS 2428 2.9 03:33:26 10° SSW 03:39:04 72° WNW 03:44:46 10° NNE
Cosmos 2219 Rocket 2.8 03:34:45 10° SW 03:40:12 56° WNW 03:45:43 10° NNE
NOSS 0 Rocket 3.7 03:47:30 10° SSW 03:53:35 73° ESE 03:53:35 73° ESE
Meteor 1-11 Rocket 4.4 03:49:33 10° SSW 03:55:09 53° W 04:00:40 10° N
USA 238 DEB 3.4 03:49:32 10° SSW 03:56:00 84° ESE 03:57:51 51° NE
USA 238 3.4 03:49:37 10° SSW 03:56:06 84° ESE 03:57:52 52° NE
MOS 1 4.3 03:57:10 66° NNE 03:57:10 66° NNE 04:02:10 10° N
USA 234 4.3 03:52:16 11° NNE 03:58:11 42° NW 04:04:14 10° WSW
Cosmos 1066 Rocket 4.2 03:58:17 10° N 04:03:36 77° N 04:03:36 77° N
Ariane Rocket 3.8 04:05:49 43° NNW 04:05:49 43° NNW 04:09:12 10° NNW
Cosmos 1777 Rocket 4.3 03:59:31 10° NNW 04:04:03 64° NW 04:04:03 64° NW
Cosmos 1727 Rocket 4.0 03:58:42 10° N 04:04:09 69° NNE 04:04:09 69° NNE
NOSS 3-2 (A) 4.3 04:22:21 10° SW 04:27:30 42° NW 04:28:20 40° NNW
CENTAUR R/B 4.2 04:44:11 10° SW 04:45:57 21° WSW 04:45:57 21° WSW
Cosmos 2278 Rocket 4.4 04:44:49 10° NNW 04:46:02 17° NNW 04:46:02 17° NNW
Cosmos 2344 4.2 10:55:40 48° ENE 10:55:40 48° ENE 11:01:25 10° NE
SL-16 R/B 4.2 11:07:56 21° ESE 11:07:56 21° ESE 11:10:10 10° SE
Centaur D AC-29 3.9 11:18:07 15° ESE 11:18:07 15° ESE 11:18:48 10° ESE
ALOS 4.2 11:24:12 10° NE 11:27:20 27° ENE 11:27:20 27° ENE
CZ-3 R/B 4.2 11:18:45 33° SSW 11:28:45 45° SSE 11:38:05 10° E
Lacrosse 4 Rocket 4.5 11:44:18 10° NNE 11:46:48 15° NE 11:49:15 10° E
Cosmos 2360 Rocket 3.7 11:46:56 10° N 11:52:06 35° ENE 11:57:12 10° SE
